This is the latest recevied weather packets stored in our database for station/object N5XJB. If no packets are shown the sender has not sent any weather packets the latest 10 day(s).
| Time | Temp. | Humidity | Pressure | Rain* | Wind** | Luminosity | Snow |
|---|---|---|---|---|---|---|---|
| 1777423911 | 28.33° C | 78% | 1012.4 hPa | 0 mm | - | 5 W/m² | - |
| 1777423608 | 28.33° C | 78% | 1012.4 hPa | 0 mm | - | 8 W/m² | - |
| 1777423303 | 28.89° C | 77% | 1012.4 hPa | 0 mm | - | 11 W/m² | - |
| 1777422998 | 29.44° C | 76% | 1012.4 hPa | 0 mm | - | 16 W/m² | - |
| 1777422693 | 29.44° C | 75% | 1012.4 hPa | 0 mm | - | 19 W/m² | - |
| 1777422389 | 29.44° C | 76% | 1012.7 hPa | 0 mm | - | 38 W/m² | - |
| 1777422084 | 29.44° C | 75% | 1012.7 hPa | 0 mm | - | 37 W/m² | - |
| 1777421783 | 29.44° C | 74% | 1012.1 hPa | 0 mm | - | 43 W/m² | - |
| 1777421480 | 28.89° C | 74% | 1012.1 hPa | 0 mm | - | 68 W/m² | - |
| 1777421176 | 29.44° C | 74% | 1012.1 hPa | 0 mm | - | 63 W/m² | - |
| 1777420872 | 29.44° C | 73% | 1011.7 hPa | 0 mm | - | 69 W/m² | - |
| 1777420568 | 29.44° C | 72% | 1012.1 hPa | 0 mm | - | 72 W/m² | - |
| 1777420264 | 29.44° C | 72% | 1011.7 hPa | 0 mm | - | 64 W/m² | - |
| 1777419960 | 30° C | 71% | 1011.4 hPa | 0 mm | - | 78 W/m² | - |
| 1777419657 | 30° C | 70% | 1011.4 hPa | 0 mm | - | 95 W/m² | - |
| 1777419355 | 30° C | 70% | 1011.4 hPa | 0 mm | - | 108 W/m² | - |
| 1777419054 | 30.56° C | 69% | 1011.7 hPa | 0 mm | - | 81 W/m² | - |
| 1777418754 | 30° C | 69% | 1011.7 hPa | 0 mm | - | 63 W/m² | - |
| 1777418451 | 30° C | 68% | 1011.7 hPa | 0 mm | - | 76 W/m² | - |
| 1777418147 | 30° C | 67% | 1011.7 hPa | 0 mm | - | 99 W/m² | - |
| 1777417843 | 30.56° C | 67% | 1011.7 hPa | 0 mm | - | 96 W/m² | - |
| 1777417538 | 30.56° C | 66% | 1011.7 hPa | 0 mm | - | 99 W/m² | - |
| 1777417236 | 30.56° C | 65% | 1011.7 hPa | 0 mm | - | 99 W/m² | - |
| 1777416932 | 31.11° C | 65% | 1011.7 hPa | 0 mm | - | 113 W/m² | - |
| 1777416626 | 31.11° C | 63% | 1011.4 hPa | 0 mm | - | 183 W/m² | - |
* Rain latest hour (hover to see other rain measurements)
** Current wind speed in m/s (hover to see current wind gust speed)